Location: Lombard
(41.8800°N, 88.0080°W)
Time: 06:43:40
(UTC-05:00)

PicSat - Visible Passes

Search period start: 22 May 2022 00:00
Search period end: 01 June 2022 00:00
Orbit: 455 x 466 km, 97.4° (Epoch: 21 May)

Date Brightness Start Highest point End Pass type
(mag) Time Alt. Az. Time Alt. Az. Time Alt. Az.
22 May ? 22:29:12 23° ENE 22:29:12 23° ENE 22:31:49 10° NNE visible
23 May ? 00:03:04 16° WNW 00:03:04 16° WNW 00:04:28 10° NW visible
23 May ? 21:57:21 10° ENE 21:57:30 10° ENE 21:57:39 10° ENE visible
23 May ? 23:30:53 38° NW 23:30:53 38° NW 23:33:21 10° NNW visible
24 May ? 22:58:37 49° NE 22:58:37 49° NE 23:01:30 10° N visible
25 May ? 22:26:17 22° ENE 22:26:18 22° ENE 22:28:59 10° NNE visible
26 May ? 00:00:08 18° WNW 00:00:08 18° WNW 00:01:47 10° NW visible
26 May ? 23:27:43 44° NW 23:27:43 44° NW 23:30:23 10° NNW visible
27 May ? 22:55:14 47° NE 22:55:14 47° NE 22:58:14 10° N visible
28 May ? 22:22:40 19° ENE 22:22:53 20° ENE 22:25:25 10° NNE visible
28 May ? 23:56:30 21° WNW 23:56:30 21° WNW 23:58:27 10° NW visible
29 May ? 23:23:51 52° NW 23:23:51 52° NW 23:26:43 10° NNW visible
30 May ? 22:51:09 43° ENE 22:51:09 43° ENE 22:54:16 10° N visible
31 May ? 22:18:22 17° ENE 22:18:45 17° ENE 22:21:06 10° NNE visible
31 May ? 23:52:10 24° WNW 23:52:10 24° WNW 23:54:24 10° NW visible
